When you browse on this site, cookies collect data to enhance your experience and personalize the content and advertising you see.
Visit our Privacy Policy to learn more. By continuing to use the site, you agree to this use of cookies and data.
  • En España
  • Lista de países
  • Para 7 días
  • Temperatura del agua
  • El tiempo en el mapa
  • Informadores
  • user-avatar
    Iniciar sesión

    Tiempo cada hora Baku

    Hoy, 28 Mayo, Jueves

    Tiempo Temperatura Precipitaciones Viento Presión Humedad
    00:00 +22°C° 0 mm 1 mps 763 mmHg 58%
    01:00 +22°C° 0 mm 1 mps 763 mmHg 58%
    02:00 +22°C° 0 mm 1 mps 762 mmHg 59%
    03:00 +21°C° 0 mm 1 mps 762 mmHg 59%
    04:00 +21°C° 0 mm 2 mps 762 mmHg 58%
    05:00 +21°C° 0 mm 2 mps 762 mmHg 58%
    06:00 +21°C° 0 mm 3 mps 762 mmHg 57%
    07:00 +22°C° 0 mm 3 mps 762 mmHg 53%
    08:00 +24°C° 0 mm 3 mps 762 mmHg 48%
    09:00 +26°C° 0 mm 3 mps 762 mmHg 44%
    10:00 +27°C° 0 mm 4 mps 762 mmHg 42%
    11:00 +27°C° 0 mm 4 mps 761 mmHg 40%
    12:00 +28°C° 0 mm 5 mps 761 mmHg 39%
    13:00 +28°C° 0 mm 5 mps 761 mmHg 38%
    14:00 +28°C° 0 mm 6 mps 760 mmHg 38%
    15:00 +28°C° 0 mm 6 mps 760 mmHg 38%
    16:00 +27°C° 0 mm 6 mps 760 mmHg 42%
    17:00 +26°C° 0 mm 6 mps 760 mmHg 46%
    18:00 +25°C° 0 mm 5 mps 760 mmHg 50%
    19:00 +23°C° 0 mm 5 mps 760 mmHg 52%
    20:00 +23°C° 0 mm 4 mps 760 mmHg 55%
    21:00 +22°C° 0 mm 4 mps 759 mmHg 57%
    22:00 +22°C° 0 mm 4 mps 759 mmHg 58%
    23:00 +22°C° 0 mm 4 mps 759 mmHg 58%

    Mañana, 29 Mayo, Viernes

    Tiempo Temperatura Precipitaciones Viento Presión Humedad
    00:00 +22°C° 0 mm 4 mps 759 mmHg 58%
    01:00 +22°C° 0 mm 4 mps 758 mmHg 58%
    02:00 +22°C° 0 mm 4 mps 758 mmHg 58%
    03:00 +21°C° 0 mm 4 mps 757 mmHg 57%
    04:00 +22°C° 0 mm 4 mps 757 mmHg 56%
    05:00 +22°C° 0 mm 4 mps 758 mmHg 56%
    06:00 +22°C° 0 mm 4 mps 758 mmHg 55%
    07:00 +25°C° 0 mm 5 mps 757 mmHg 51%
    08:00 +26°C° 0 mm 6 mps 757 mmHg 47%
    09:00 +27°C° 0 mm 6 mps 757 mmHg 43%
    10:00 +27°C° 0 mm 6 mps 757 mmHg 42%
    11:00 +28°C° 0 mm 6 mps 756 mmHg 41%
    12:00 +29°C° 0 mm 7 mps 756 mmHg 39%
    13:00 +29°C° 0 mm 6 mps 756 mmHg 38%
    14:00 +30°C° 0 mm 6 mps 755 mmHg 37%
    15:00 +30°C° 0 mm 5 mps 755 mmHg 36%
    16:00 +29°C° 0 mm 6 mps 754 mmHg 39%
    17:00 +28°C° 0 mm 6 mps 754 mmHg 42%
    18:00 +27°C° 0 mm 6 mps 753 mmHg 45%
    19:00 +27°C° 0 mm 6 mps 753 mmHg 47%
    20:00 +27°C° 0 mm 5 mps 753 mmHg 50%
    21:00 +26°C° 0 mm 5 mps 753 mmHg 52%
    22:00 +26°C° 0 mm 5 mps 753 mmHg 53%
    23:00 +26°C° 0 mm 5 mps 753 mmHg 53%

    Pasado mañana, 30 Mayo, Sábado

    Tiempo Temperatura Precipitaciones Viento Presión Humedad
    00:00 +27°C° 0 mm 5 mps 753 mmHg 53%
    01:00 +26°C° 0 mm 5 mps 753 mmHg 54%
    02:00 +26°C° 0 mm 5 mps 753 mmHg 55%
    03:00 +26°C° 0 mm 5 mps 753 mmHg 56%
    04:00 +25°C° 0 mm 4 mps 753 mmHg 59%
    05:00 +25°C° 0 mm 4 mps 753 mmHg 61%
    06:00 +25°C° 0 mm 4 mps 754 mmHg 63%
    07:00 +25°C° 0 mm 5 mps 754 mmHg 61%
    08:00 +26°C° 0 mm 7 mps 755 mmHg 59%
    09:00 +26°C° 0 mm 9 mps 755 mmHg 57%
    10:00 +26°C° 0.2 mm 11 mps 756 mmHg 60%
    11:00 +24°C° 0.2 mm 14 mps 757 mmHg 64%
    12:00 +24°C° 0.2 mm 16 mps 757 mmHg 67%
    13:00 +24°C° 0.1 mm 16 mps 757 mmHg 66%
    14:00 +23°C° 0.1 mm 17 mps 757 mmHg 65%
    15:00 +23°C° 0.1 mm 17 mps 757 mmHg 64%
    16:00 +23°C° 0 mm 17 mps 758 mmHg 62%
    17:00 +23°C° 0 mm 16 mps 758 mmHg 60%
    18:00 +23°C° 0 mm 16 mps 758 mmHg 58%
    19:00 +22°C° 0.1 mm 16 mps 758 mmHg 57%
    20:00 +22°C° 0.1 mm 15 mps 759 mmHg 57%
    21:00 +22°C° 0.1 mm 15 mps 759 mmHg 56%
    22:00 +22°C° 0 mm 15 mps 759 mmHg 57%
    23:00 +22°C° 0 mm 15 mps 759 mmHg 58%

    31 Mayo, Domingo

    Tiempo Temperatura Precipitaciones Viento Presión Humedad
    00:00 +22°C° 0 mm 14 mps 759 mmHg 59%
    01:00 +22°C° 0 mm 14 mps 759 mmHg 58%
    02:00 +22°C° 0 mm 14 mps 759 mmHg 58%
    03:00 +22°C° 0 mm 15 mps 759 mmHg 58%
    04:00 +22°C° 0 mm 15 mps 759 mmHg 58%
    05:00 +22°C° 0 mm 15 mps 760 mmHg 57%
    06:00 +22°C° 0 mm 15 mps 760 mmHg 57%
    07:00 +22°C° 0 mm 14 mps 760 mmHg 56%
    08:00 +23°C° 0 mm 14 mps 760 mmHg 54%
    09:00 +23°C° 0 mm 13 mps 760 mmHg 53%
    10:00 +24°C° 0 mm 13 mps 760 mmHg 53%
    11:00 +24°C° 0 mm 13 mps 760 mmHg 52%
    12:00 +24°C° 0 mm 12 mps 760 mmHg 52%
    13:00 +24°C° 0 mm 12 mps 760 mmHg 53%
    14:00 +23°C° 0 mm 12 mps 760 mmHg 54%
    15:00 +23°C° 0 mm 12 mps 760 mmHg 55%
    16:00 +23°C° 0 mm 12 mps 760 mmHg 56%
    17:00 +22°C° 0 mm 12 mps 760 mmHg 58%
    18:00 +22°C° 0 mm 12 mps 760 mmHg 60%
    19:00 +22°C° 0 mm 12 mps 760 mmHg 60%
    20:00 +21°C° 0 mm 12 mps 760 mmHg 61%
    21:00 +21°C° 0 mm 12 mps 761 mmHg 61%
    22:00 +21°C° 0 mm 11 mps 760 mmHg 62%
    23:00 +21°C° 0 mm 11 mps 760 mmHg 62%

    1 Junio, Lunes

    Tiempo Temperatura Precipitaciones Viento Presión Humedad
    00:00 +21°C° 0 mm 10 mps 760 mmHg 62%
    01:00 +19°C° 0 mm 9 mps 760 mmHg 63%
    02:00 +19°C° 0 mm 9 mps 760 mmHg 64%
    03:00 +20°C° 0 mm 8 mps 760 mmHg 66%
    04:00 +20°C° 0 mm 7 mps 760 mmHg 64%
    05:00 +20°C° 0 mm 7 mps 760 mmHg 62%
    06:00 +21°C° 0 mm 7 mps 760 mmHg 60%
    07:00 +22°C° 0 mm 6 mps 760 mmHg 55%
    08:00 +23°C° 0 mm 6 mps 760 mmHg 50%
    09:00 +23°C° 0 mm 5 mps 760 mmHg 45%
    10:00 +25°C° 0 mm 4 mps 759 mmHg 43%
    11:00 +26°C° 0 mm 3 mps 759 mmHg 40%
    12:00 +26°C° 0 mm 2 mps 759 mmHg 38%
    13:00 +27°C° 0 mm 3 mps 758 mmHg 37%
    14:00 +28°C° 0 mm 4 mps 758 mmHg 35%
    15:00 +28°C° 0 mm 4 mps 757 mmHg 34%
    16:00 +28°C° 0 mm 4 mps 757 mmHg 37%
    17:00 +27°C° 0 mm 4 mps 757 mmHg 39%
    18:00 +26°C° 0 mm 4 mps 756 mmHg 42%
    19:00 +25°C° 0 mm 4 mps 756 mmHg 44%
    20:00 +25°C° 0 mm 5 mps 756 mmHg 47%
    21:00 +23°C° 0 mm 5 mps 756 mmHg 49%
    22:00 +23°C° 0 mm 4 mps 756 mmHg 50%
    23:00 +23°C° 0 mm 4 mps 755 mmHg 51%

    2 Junio, Martes

    Tiempo Temperatura Precipitaciones Viento Presión Humedad
    00:00 +23°C° 0 mm 4 mps 755 mmHg 51%
    01:00 +23°C° 0 mm 4 mps 755 mmHg 52%
    02:00 +22°C° 0 mm 4 mps 754 mmHg 52%
    03:00 +22°C° 0 mm 4 mps 754 mmHg 52%
    04:00 +22°C° 0 mm 4 mps 754 mmHg 53%
    05:00 +22°C° 0 mm 3 mps 754 mmHg 54%
    06:00 +22°C° 0 mm 3 mps 754 mmHg 55%
    07:00 +24°C° 0 mm 3 mps 754 mmHg 52%
    08:00 +25°C° 0 mm 3 mps 754 mmHg 49%
    09:00 +26°C° 0 mm 2 mps 754 mmHg 46%
    10:00 +27°C° 0 mm 3 mps 754 mmHg 44%
    11:00 +28°C° 0 mm 4 mps 754 mmHg 43%
    12:00 +29°C° 0 mm 6 mps 754 mmHg 42%
    13:00 +29°C° 0 mm 5 mps 754 mmHg 42%
    14:00 +29°C° 0 mm 5 mps 753 mmHg 43%
    15:00 +29°C° 0 mm 4 mps 753 mmHg 43%
    16:00 +28°C° 0 mm 4 mps 753 mmHg 46%
    17:00 +27°C° 0 mm 3 mps 752 mmHg 48%
    18:00 +26°C° 0 mm 2 mps 752 mmHg 51%
    19:00 +25°C° 0 mm 3 mps 753 mmHg 52%
    20:00 +23°C° 0 mm 4 mps 753 mmHg 52%
    21:00 +23°C° 0 mm 4 mps 753 mmHg 53%
    22:00 +22°C° 0 mm 6 mps 753 mmHg 54%
    23:00 +22°C° 0 mm 8 mps 753 mmHg 55%
    Mostrar más